Weather History for Gillette, WY

Change the Weather History Date:

Wednesday, July 24, 2013

  Actual Average Record
Temperature  
Mean Temperature 70 °F 73 °F  
Max Temperature 88 °F 88 °F 104 °F (1931)
Min Temperature 52 °F 57 °F 46 °F (1970)
Degree Days  
Heating Degree Days 0 0  
Month to date heating degree days 0 14  
Since 1 June heating degree days 117 156  
Since 1 July heating degree days 0 14  
Cooling Degree Days 5 8  
Month to date cooling degree days 197 160  
Year to date cooling degree days 251 228  
Since 1 June cooling degree days 243 220  
Growing Degree Days 20 (Base 50)    
Moisture  
Dew Point 49 °F    
Average Humidity 52    
Maximum Humidity 83    
Minimum Humidity 20    
Precipitation  
Precipitation 0.03 in 0.05 in 1.70 in (1932)
Month to date precipitation 2.25 1.31  
Year to date precipitation 11.80 9.18  
Sea Level Pressure  
Sea Level Pressure 29.98 in    
Wind  
Wind Speed 7 mph (ESE)    
Max Wind Speed 20 mph    
Max Gust Speed 28 mph    
Visibility 10 miles    
Events      
T = Trace of Precipitation, MM = Missing Value Source: NWS Daily Summary

Daily Weather History Graph

Daily Weather History Graph

Search for Another Location

Airport:

Trip Planner

Search our weather history database for the weather conditions in past years. The results will help you decide how hot, cold, wet, or windy it might be!

Date:

Astronomy

Jul. 24, 2013 Rise Set
Actual Time 5:41 AM MDT 8:35 PM MDT
Civil Twilight 5:06 AM MDT 9:09 PM MDT
Nautical Twilight 4:23 AM MDT 9:52 PM MDT
Astronomical Twilight 3:32 AM MDT 10:43 PM MDT
Moon 9:33 PM MDT 8:12 AM MDT
Length of Visible Light 16h 02m
Length of Day
14h 54m
Waning Gibbous, 94% of the Moon is Illuminated
Jul 24
Waning Gibbous
Jul 29
Last Quarter
Aug 6
New
Aug 14
First Quarter
Aug 20
Full

Hourly Weather History & Observations

Time (MDT) Temp. Dew Point Humidity Pressure Visibility Wind Dir Wind Speed Gust Speed Precip Events Conditions
12:53 AM 57.9 °F 48.0 °F 70% 30.05 in 10.0 mi Calm Calm - N/A   Clear
1:53 AM 57.0 °F 48.0 °F 72% 30.05 in 10.0 mi SW 3.5 mph - N/A   Clear
2:53 AM 55.9 °F 48.0 °F 75% 30.05 in 10.0 mi Calm Calm - N/A   Clear
3:53 AM 54.0 °F 48.0 °F 80% 30.05 in 10.0 mi Calm Calm - N/A   Clear
4:53 AM 53.1 °F 48.0 °F 83% 30.05 in 10.0 mi Calm Calm - N/A   Clear
5:53 AM 53.1 °F 48.0 °F 83% 30.06 in 10.0 mi Calm Calm - N/A   Clear
6:53 AM 60.1 °F 51.1 °F 72% 30.06 in 10.0 mi Calm Calm - N/A   Clear
7:53 AM 66.9 °F 51.1 °F 57% 30.06 in 10.0 mi Calm Calm - N/A   Clear
8:53 AM 75.0 °F 54.0 °F 48% 30.05 in 10.0 mi ENE 5.8 mph - N/A   Clear
9:53 AM 79.0 °F 52.0 °F 39% 30.05 in 10.0 mi Variable 6.9 mph - N/A   Clear
10:53 AM 81.0 °F 50.0 °F 34% 30.04 in 10.0 mi SE 6.9 mph - N/A   Clear
11:53 AM 82.9 °F 48.0 °F 29% 30.03 in 10.0 mi East 4.6 mph - N/A   Clear
12:53 PM 84.9 °F 42.1 °F 22% 30.00 in 10.0 mi Calm Calm - N/A   Clear
1:53 PM 86.0 °F 42.1 °F 21% 29.98 in 10.0 mi Variable 3.5 mph - N/A   Clear
2:53 PM 86.0 °F 42.1 °F 21% 29.96 in 10.0 mi Variable 4.6 mph - N/A   Clear
3:53 PM 87.1 °F 41.0 °F 20% 29.93 in 10.0 mi SE 6.9 mph - N/A   Clear
4:53 PM 88.0 °F 43.0 °F 21% 29.92 in 10.0 mi ENE 16.1 mph 20.7 mph N/A   Clear
5:53 PM 84.9 °F 44.1 °F 24% 29.91 in 10.0 mi ENE 17.3 mph - N/A   Clear
6:53 PM 82.9 °F 45.0 °F 26% 29.89 in 10.0 mi East 16.1 mph - N/A   Clear
7:53 PM 79.0 °F 48.9 °F 35% 29.88 in 10.0 mi East 10.4 mph - N/A   Clear
8:22 PM 78.8 °F 53.6 °F 42% 30.03 in 10.0 mi SSE 16.1 mph - N/A   Clear
8:53 PM 77.0 °F 53.1 °F 43% 29.87 in 10.0 mi SSE 13.8 mph - N/A   Clear
9:53 PM 75.0 °F 54.0 °F 48% 29.90 in 10.0 mi Variable 3.5 mph - N/A   Mostly Cloudy
10:53 PM 71.1 °F 55.9 °F 59% 29.87 in 10.0 mi SSE 16.1 mph 25.3 mph 0.03 in   Clear
11:53 PM 71.1 °F 55.0 °F 57% 29.87 in 10.0 mi South 11.5 mph - N/A   Clear